EN

Hourly Weather Kyzylsengir

Today, 27 November, Friday

Time Temperature Precipitation Wind Pressure Humidity
00:00 +4°C° 0 mm 2 mps 713 mmHg 52%
01:00 +4°C° 0 mm 2 mps 713 mmHg 51%
02:00 +4°C° 0 mm 1 mps 713 mmHg 49%
03:00 +4°C° 0 mm 2 mps 713 mmHg 49%
04:00 +4°C° 0 mm 2 mps 713 mmHg 49%
05:00 +4°C° 0 mm 2 mps 712 mmHg 53%
06:00 +5°C° 0 mm 2 mps 712 mmHg 53%
07:00 +5°C° 0 mm 2 mps 712 mmHg 52%
08:00 +5°C° 0 mm 2 mps 712 mmHg 52%
09:00 +6°C° 0 mm 2 mps 712 mmHg 57%
10:00 +6°C° 0 mm 2 mps 712 mmHg 62%
11:00 +7°C° 0 mm 2 mps 712 mmHg 67%
12:00 +7°C° 0 mm 2 mps 712 mmHg 67%
13:00 +9°C° 0 mm 1 mps 711 mmHg 67%
14:00 +9°C° 0 mm 1 mps 711 mmHg 68%
15:00 +8°C° 0 mm 2 mps 711 mmHg 64%
16:00 +7°C° 0 mm 2 mps 711 mmHg 60%
17:00 +7°C° 0 mm 2 mps 711 mmHg 56%
18:00 +7°C° 0 mm 3 mps 711 mmHg 57%
19:00 +7°C° 0 mm 3 mps 712 mmHg 57%
20:00 +6°C° 0 mm 4 mps 712 mmHg 58%
21:00 +7°C° 0 mm 3 mps 712 mmHg 59%
22:00 +7°C° 0 mm 3 mps 712 mmHg 60%
23:00 +7°C° 0 mm 3 mps 712 mmHg 61%

Tomorrow, 28 November, Saturday

Time Temperature Precipitation Wind Pressure Humidity
00:00 +5°C° 0 mm 3 mps 713 mmHg 64%
01:00 +5°C° 0 mm 2 mps 713 mmHg 67%
02:00 +5°C° 0 mm 1 mps 714 mmHg 70%
03:00 +3°C° 1.8 mm 2 mps 715 mmHg 79%
04:00 +1°C° 1.8 mm 3 mps 716 mmHg 89%
05:00 -1°C° 1.8 mm 4 mps 718 mmHg 98%
06:00 -1°C° 2.7 mm 4 mps 719 mmHg 98%
07:00 -2°C° 2.7 mm 4 mps 720 mmHg 98%
08:00 -1°C° 2.7 mm 3 mps 721 mmHg 97%
09:00 -1°C° 0.3 mm 3 mps 722 mmHg 97%
10:00 0°C° 0.3 mm 3 mps 723 mmHg 97%
11:00 0°C° 0.3 mm 3 mps 723 mmHg 96%
12:00 0°C° 0.1 mm 3 mps 723 mmHg 94%
13:00 0°C° 0.1 mm 3 mps 723 mmHg 92%
14:00 +1°C° 0.1 mm 2 mps 724 mmHg 91%
15:00 -1°C° 0 mm 2 mps 724 mmHg 88%
16:00 0°C° 0 mm 1 mps 724 mmHg 85%
17:00 -1°C° 0 mm 1 mps 724 mmHg 82%
18:00 -1°C° 0 mm 1 mps 724 mmHg 80%
19:00 -2°C° 0 mm 1 mps 724 mmHg 77%
20:00 -2°C° 0 mm 1 mps 724 mmHg 75%
21:00 -4°C° 0 mm 2 mps 724 mmHg 72%
22:00 -4°C° 0 mm 2 mps 724 mmHg 69%
23:00 -5°C° 0 mm 2 mps 724 mmHg 67%

Day after tomorrow, 29 November, Sunday

Time Temperature Precipitation Wind Pressure Humidity
00:00 -5°C° 0 mm 2 mps 724 mmHg 65%
01:00 -5°C° 0 mm 2 mps 724 mmHg 63%
02:00 -5°C° 0 mm 2 mps 724 mmHg 62%
03:00 -6°C° 0 mm 3 mps 724 mmHg 61%
04:00 -6°C° 0 mm 3 mps 724 mmHg 60%
05:00 -6°C° 0 mm 3 mps 723 mmHg 60%
06:00 -6°C° 0 mm 3 mps 723 mmHg 58%
07:00 -6°C° 0 mm 3 mps 723 mmHg 57%
08:00 -6°C° 0 mm 3 mps 723 mmHg 56%
09:00 -3°C° 0 mm 2 mps 723 mmHg 58%
10:00 -2°C° 0 mm 2 mps 723 mmHg 61%
11:00 +1°C° 0 mm 2 mps 723 mmHg 64%
12:00 +1°C° 0 mm 2 mps 723 mmHg 65%
13:00 +2°C° 0 mm 1 mps 723 mmHg 67%
14:00 +3°C° 0 mm 1 mps 722 mmHg 68%
15:00 +1°C° 0 mm 1 mps 722 mmHg 66%
16:00 0°C° 0 mm 1 mps 721 mmHg 65%
17:00 -1°C° 0 mm 1 mps 721 mmHg 63%
18:00 -2°C° 0 mm 1 mps 721 mmHg 61%
19:00 -2°C° 0 mm 1 mps 721 mmHg 59%
20:00 -2°C° 0 mm 1 mps 721 mmHg 57%
21:00 -2°C° 0 mm 1 mps 721 mmHg 55%
22:00 -2°C° 0 mm 1 mps 721 mmHg 54%
23:00 -2°C° 0 mm 1 mps 720 mmHg 52%

30 November, Monday

Time Temperature Precipitation Wind Pressure Humidity
00:00 -4°C° 0 mm 2 mps 720 mmHg 51%
01:00 -4°C° 0 mm 2 mps 720 mmHg 50%
02:00 -4°C° 0 mm 2 mps 719 mmHg 48%
03:00 -4°C° 0 mm 2 mps 719 mmHg 48%
04:00 -4°C° 0 mm 2 mps 719 mmHg 47%
05:00 -4°C° 0 mm 2 mps 719 mmHg 47%
06:00 -4°C° 0 mm 2 mps 718 mmHg 46%
07:00 -2°C° 0 mm 1 mps 718 mmHg 45%
08:00 -2°C° 0 mm 1 mps 718 mmHg 45%
09:00 0°C° 0 mm 1 mps 718 mmHg 49%
10:00 +1°C° 0 mm 1 mps 718 mmHg 53%
11:00 +2°C° 0 mm 0 mps 718 mmHg 57%
12:00 +3°C° 0 mm 1 mps 717 mmHg 58%
13:00 +3°C° 0 mm 1 mps 717 mmHg 59%
14:00 +3°C° 0 mm 1 mps 716 mmHg 61%
15:00 +2°C° 0 mm 1 mps 716 mmHg 59%
16:00 +1°C° 0 mm 1 mps 715 mmHg 57%
17:00 0°C° 0 mm 1 mps 715 mmHg 55%
18:00 0°C° 0 mm 1 mps 715 mmHg 55%
19:00 +1°C° 0 mm 1 mps 715 mmHg 56%
20:00 +1°C° 0 mm 1 mps 715 mmHg 56%
21:00 +1°C° 0 mm 1 mps 714 mmHg 57%
22:00 +1°C° 0 mm 1 mps 714 mmHg 58%
23:00 +1°C° 0 mm 1 mps 714 mmHg 60%

1 December, Tuesday

Time Temperature Precipitation Wind Pressure Humidity
00:00 +1°C° 0 mm 1 mps 714 mmHg 61%
01:00 +1°C° 0 mm 1 mps 714 mmHg 62%
02:00 +1°C° 0 mm 1 mps 714 mmHg 63%
03:00 +1°C° 0 mm 1 mps 714 mmHg 62%
04:00 +1°C° 0 mm 1 mps 714 mmHg 62%
05:00 +1°C° 0 mm 1 mps 714 mmHg 61%
06:00 +1°C° 0.1 mm 1 mps 714 mmHg 63%
07:00 +1°C° 0.1 mm 1 mps 714 mmHg 65%
08:00 -1°C° 0.1 mm 2 mps 715 mmHg 67%
09:00 +1°C° 0 mm 2 mps 715 mmHg 70%
10:00 +2°C° 0 mm 2 mps 715 mmHg 73%
11:00 +3°C° 0 mm 2 mps 716 mmHg 75%
12:00 +4°C° 0.1 mm 1 mps 715 mmHg 80%
13:00 +4°C° 0.1 mm 1 mps 715 mmHg 84%
14:00 +4°C° 0.1 mm 1 mps 715 mmHg 89%
15:00 +4°C° 0.2 mm 1 mps 716 mmHg 90%
16:00 +4°C° 0.2 mm 1 mps 716 mmHg 92%
17:00 +3°C° 0.2 mm 2 mps 716 mmHg 94%
18:00 +4°C° 0.2 mm 2 mps 716 mmHg 94%
19:00 +4°C° 0.2 mm 2 mps 716 mmHg 94%
20:00 +4°C° 0.2 mm 2 mps 716 mmHg 94%
21:00 +4°C° 0 mm 2 mps 716 mmHg 91%
22:00 +4°C° 0 mm 2 mps 716 mmHg 88%
23:00 +4°C° 0 mm 2 mps 716 mmHg 85%

2 December, Wednesday

Time Temperature Precipitation Wind Pressure Humidity
00:00 +4°C° 0 mm 2 mps 716 mmHg 82%
01:00 +4°C° 0 mm 2 mps 716 mmHg 79%
02:00 +4°C° 0 mm 2 mps 716 mmHg 76%
03:00 +4°C° 0 mm 2 mps 716 mmHg 75%
04:00 +4°C° 0 mm 2 mps 716 mmHg 74%
05:00 +5°C° 0 mm 1 mps 716 mmHg 72%
06:00 +5°C° 0 mm 1 mps 716 mmHg 73%
07:00 +5°C° 0 mm 1 mps 716 mmHg 74%
08:00 +4°C° 0 mm 1 mps 716 mmHg 74%
09:00 +5°C° 0 mm 1 mps 716 mmHg 78%
10:00 +6°C° 0 mm 1 mps 716 mmHg 81%
11:00 +6°C° 0 mm 0 mps 716 mmHg 85%
12:00 +7°C° 0 mm 1 mps 716 mmHg 85%
13:00 +7°C° 0 mm 1 mps 716 mmHg 85%
14:00 +8°C° 0 mm 1 mps 715 mmHg 86%
15:00 +7°C° 0 mm 1 mps 715 mmHg 84%
16:00 +7°C° 0 mm 1 mps 715 mmHg 82%
17:00 +6°C° 0 mm 1 mps 715 mmHg 80%
18:00 +6°C° 0 mm 1 mps 715 mmHg 79%
19:00 +5°C° 0 mm 2 mps 715 mmHg 78%
20:00 +5°C° 0 mm 2 mps 715 mmHg 76%
21:00 +5°C° 0 mm 2 mps 715 mmHg 75%
22:00 +5°C° 0 mm 2 mps 715 mmHg 74%
23:00 +5°C° 0 mm 2 mps 715 mmHg 73%
Show more

We Need Your Consent

Meteoprog and our Service Providers may store and access personal data such as cookies, device identifiers or other similar technologies on your device and process such data to personalise content and ads, as well as provide social media features and to analyse the traffic.

  • Store and/or access information on your device

    Cookies, device identifiers or other information can be stored or accessed on your device for the purposes indicated above.

  • Personalised ads and content, ad and content measurement, audience insights, and products development

    Ads and content can be personalised based on a profile. More data can be added to better personalise ads and content. Ad and content performance can be measured. Insights about the audience who saw the ads and content can be derived. Such data can be used to develop or improve user’s experience, systems and software.

By clicking ‘I Agree’ you will allow the use of indicated cookies, device identifiers, web beacons or other similar technologies. Your settings can be changed in the browser on your device.

For certain purposes, legitimate interests may be relied on, rather than consent. You can read more about this in our Privacy and Cookie Policy.